Location: Oakland
(41.0130°N, 74.2650°W)
Time: 09:56:19
(UTC-04:00)

Daily predictions for brighter satellites

Satellite Brightness Start Highest point End
(mag) Time Altitude Azimuth Time Altitude Azimuth Time Altitude Azimuth
Cosmos 1818 3.7 19:41:30 10° NNW 19:46:56 64° NE 19:52:18 10° SE
FREGAT/IRIS 2.8 19:45:22 10° S 19:48:25 80° WSW 19:51:30 10° NNW
COSMOS 2487 3.5 19:45:41 10° N 19:48:48 27° ENE 19:51:54 10° SE
Cosmos 1271 Rocket 4.2 19:46:42 10° SE 19:49:28 18° E 19:52:15 10° NE
Cosmos 1758 3.7 19:46:21 10° SSE 19:50:04 40° E 19:53:50 10° NNE
Lacrosse 5 3.0 19:49:00 10° WSW 19:53:53 46° NW 19:58:46 10° NE
Cosmos 1953 2.7 19:52:36 10° SSE 19:56:28 44° E 20:00:20 10° NNE
Cosmos 1674 3.7 19:53:55 10° NNE 19:57:09 26° ENE 20:00:23 10° SE
Cosmos 1766 3.9 19:55:04 10° SSW 19:58:53 60° W 20:02:45 10° N
Cosmos 1408 Rocket 4.3 19:55:53 10° NNE 19:59:57 33° ENE 20:03:58 10° SE
Resurs 1-3 3.9 19:55:58 10° SE 20:00:10 47° ENE 20:04:23 10° N
Helios 1B rocket 3.3 20:04:38 10° NE 20:08:11 27° E 20:11:40 10° SSE
Meteor 1-4 Rocket 2.3 20:05:06 10° S 20:08:32 67° E 20:12:00 10° NNE
In-Cosmos 22 4.3 20:05:32 10° NNW 20:10:50 77° W 20:16:06 10° S
Spot 2 Rocket 3.5 20:08:40 10° SSE 20:13:45 74° ENE 20:18:52 10° N
Cosmos 2098 Rocket 4.4 20:06:52 10° S 20:14:08 71° E 20:21:40 10° NNE
Lacrosse 4 Rocket 4.5 20:13:29 10° WNW 20:15:13 12° NW 20:16:56 10° NNW
Timation 2 Rocket 4.1 20:09:13 10° NNW 20:15:27 58° ENE 20:21:18 11° SE
Cosmos 1459 Rocket 4.4 20:10:04 10° SSE 20:15:47 39° E 20:21:27 10° NNE
Lacrosse 5 rocket 1.9 20:12:25 10° NNW 20:16:09 38° NE 20:18:26 19° E
Cosmos 1447 Rocket 4.4 20:11:45 10° N 20:17:53 71° E 20:24:01 10° SSE
SWAS 4.4 20:15:39 10° SSW 20:19:52 63° ESE 20:24:09 10° NNE
Cosmos 1076 Rocket 3.4 20:15:58 10° N 20:20:15 79° E 20:24:28 10° S
Cosmos 1544 3.6 20:17:41 10° SSW 20:21:18 63° W 20:24:58 10° N
Cosmos 2344 4.4 20:14:23 10° SW 20:21:54 56° NW 20:30:32 10° NNE
Cosmos 1867 3.7 20:17:46 10° SSW 20:23:13 83° WNW 20:28:44 10° NNE
Cosmos 2173 Rocket 4.3 20:18:09 10° SSE 20:23:57 45° E 20:29:53 10° NNE
CZ-2D R/B 3.2 20:20:10 10° SSE 20:24:01 76° ENE 20:27:54 10° N
H-2A R/B (2) 3.7 20:21:43 10° SW 20:24:02 16° S 20:26:56 12° SE
FENGYUN 3A 4.3 20:18:44 10° S 20:24:04 60° W 20:29:24 10° NNW
Okean 3 Rocket 4.2 20:20:07 10° NNW 20:24:27 58° W 20:28:48 10° S
Cosmos 1805 4.1 20:23:55 10° SSW 20:27:44 54° W 20:31:35 10° N
Cosmos 1833 Rocket 2.6 20:23:39 10° NNW 20:29:18 80° ENE 20:34:48 11° SSE
Helios 1A 3.1 20:26:17 13° SSE 20:29:54 55° ENE 20:34:01 10° N
ALOS 3.5 20:25:38 10° S 20:30:05 44° W 20:34:34 10° NNW
Cosmos 482 Debris 4.3 20:30:02 10° NNW 20:31:14 20° NNE 20:31:14 20° NNE
Envisat 3.4 20:28:31 17° SE 20:31:59 41° ENE 20:36:45 10° N
Meteor 1-21 Rocket 4.3 20:26:15 10° N 20:32:09 90° SSE 20:38:04 10° S
Abrixas 4.2 20:31:55 10° W 20:34:17 24° SW 20:35:43 16° S
Cosmos 1184 Rocket 4.0 20:32:17 10° NNE 20:35:05 26° ENE 20:35:05 26° ENE
Cosmos 2278 Rocket 4.1 20:34:10 10° WSW 20:39:14 32° WNW 20:44:20 10° N
ATLAS 5 CENTAUR R/B 1.8 20:36:56 10° SW 20:41:35 86° WNW 20:46:43 10° NE
SeaSat 1 3.3 20:37:29 10° S 20:42:14 49° WSW 20:47:02 10° NW
Cosmos 1125 Rocket 4.3 20:37:56 10° SW 20:43:02 55° WNW 20:48:10 10° N
Cosmos 1733 3.1 20:40:18 10° S 20:44:09 78° E 20:48:03 10° N
Spot 1 4.3 20:39:57 11° SSE 20:44:26 83° ENE 20:49:25 10° NNW
ERS-1 Rocket 3.9 20:43:16 26° E 20:44:31 30° ENE 20:48:51 10° N
Geosat 3.9 20:39:50 10° NNE 20:44:53 75° ESE 20:49:54 10° SSW
Cosmos 1470 2.7 20:41:48 10° S 20:45:46 86° E 20:49:45 10° N
Cosmos 1048 Rocket 4.4 20:40:52 10° NNW 20:45:55 62° WSW 20:50:58 10° S
Cosmos 1766 Rocket 3.8 20:42:27 10° NNW 20:46:56 74° W 20:51:23 10° S
GPS 2-05 Rocket1 3.7 20:44:33 10° WSW 20:47:49 34° S 20:48:14 33° SSE
Cosmos-2242 2.9 20:44:13 10° S 20:48:27 85° W 20:52:44 10° N
H-2A R/B 4.2 20:50:23 11° NE 20:50:23 11° NE 20:51:30 10° NE
OAO 2 Rocket 4.5 20:46:30 10° SW 20:50:45 26° SSE 20:51:18 25° SSE
GP-B 3.2 20:47:17 10° S 20:51:43 77° W 20:56:11 10° N
Cosmos 1356 Rocket 3.8 20:50:16 10° N 20:54:08 39° ENE 20:54:14 39° E
Cosmos 2016 Rocket 4.0 20:50:01 10° S 20:56:04 59° E 21:02:06 10° NNE
USA 186 2.6 20:58:06 31° W 20:58:06 31° W 21:00:07 10° NNW
BREEZE-M DEB (TANK) 4.2 20:56:21 10° W 20:59:36 55° NNW 21:09:37 10° ENE
Cosmos 1340 Rocket 2.8 20:56:28 10° NNW 21:00:30 79° W 21:02:28 29° S
Resurs 01 Rocket 3.4 20:57:08 10° SSW 21:01:03 31° W 21:05:01 10° NW
CZ-4B DEB 2.6 21:01:12 71° SSW 21:01:27 79° WSW 21:04:33 10° NNW
Cosmos 1725 Rocket 4.2 21:02:51 28° SSE 21:05:45 48° E 21:11:40 10° NNE
Cosmos 2082 Rocket 3.2 21:04:03 10° NW 21:09:24 43° WSW 21:14:41 10° S
ISS -2.7 21:09:05 10° WSW 21:12:12 41° NNW 21:12:44 38° N
ARGOS 4.2 21:13:45 28° ENE 21:13:45 28° ENE 21:17:57 10° N
Meteor 1-29 3.6 21:10:16 10° N 21:13:41 55° WNW 21:16:41 13° SSW
Cosmos 2100 Rocket 4.4 21:08:43 10° SSW 21:14:59 66° W 21:21:21 10° N
Cosmos 1743 Rocket 3.7 21:13:39 10° NNW 21:18:05 72° W 21:19:40 39° S
SL-08 R/B 4.4 21:12:16 10° S 21:18:37 75° E 21:25:02 10° N
Cosmos 1500 Rocket 3.3 21:14:46 10° N 21:19:07 83° E 21:19:25 75° SE
Meteor 1-11 4.1 21:15:01 10° N 21:20:35 69° E 21:21:49 52° SE
Meteor 1-16 Rocket 4.2 21:15:17 10° S 21:21:08 84° E 21:27:05 10° N
YAOGAN 6 3.6 21:24:20 39° N 21:24:20 39° N 21:26:51 10° N
SL-14 R/B 3.4 21:19:23 10° N 21:22:48 68° N 21:22:48 68° N
CZ-3B DEB 4.1 21:17:44 10° W 21:24:18 24° NNW 21:28:03 10° NNE
Cosmos 2058 3.8 21:22:31 10° N 21:25:21 38° NNE 21:25:21 38° NNE
Cosmos 2251 Rocket 3.4 21:22:14 10° NNW 21:27:36 89° WSW 21:28:42 58° SSE
Tsikada Rocket 3.9 21:21:39 10° N 21:27:51 66° E 21:29:09 53° SE
Cosmos 1328 4.1 21:26:31 10° NNW 21:30:24 63° W 21:30:24 63° W
USA 215 3.1 21:28:08 10° NE 21:34:40 72° SE 21:41:11 10° SW
Lacrosse 5 4.5 21:34:51 10° NW 21:38:00 16° NNW 21:41:10 10° NNE
SPOT 5 3.5 21:42:54 51° NE 21:42:54 51° NE 21:47:22 10° N
Cosmos 2151 3.5 21:38:32 10° NNW 21:42:01 56° NNW 21:42:01 56° NNW
Cosmos 1939 Rocket 4.1 21:42:56 37° WSW 21:43:32 39° W 21:47:27 10° NNW
Meteor 2-1 Rocket 4.1 21:43:33 77° E 21:43:34 77° E 21:49:13 10° NNE
Terra 4.1 21:52:12 14° NNE 21:52:12 14° NNE 21:53:06 10° NNE
Lacrosse 5 rocket 3.4 21:52:05 10° WNW 21:54:09 21° W 21:54:09 21° W
Cosmos 1816 Rocket 4.3 21:50:46 10° N 21:56:59 89° W 21:57:23 80° S
Cosmos 2369 Rocket 3.1 22:01:46 38° NNE 22:01:46 38° NNE 22:05:08 10° NNE
MetOp-B 4.3 22:02:47 69° NNW 22:02:47 69° NNW 22:07:32 10° NNW
USA 267 3.9 22:06:11 41° NE 22:06:56 43° NNE 22:13:01 10° NW
Gblst 52 Del rocket 4.5 22:02:38 10° WSW 22:07:37 62° W 22:07:37 62° W
USA 245 4.5 22:09:51 71° N 22:09:51 71° N 22:15:28 10° NNW
Cosmos 2233 Rocket 4.0 22:10:13 76° N 22:10:13 76° N 22:15:51 10° N
ERS-1 Rocket 4.4 22:23:15 32° W 22:23:15 32° W 22:27:42 10° NNW
H-2A R/B 3.4 22:31:01 35° N 22:31:01 35° N 22:34:00 10° N
CZ-3 Stage 3 4.2 22:24:35 10° W 22:37:50 29° SW 22:37:50 29° SW
CZ-4C R/B 4.3 22:48:37 19° NNE 22:48:37 19° NNE 22:50:27 10° NNE
USA 215 4.3 23:11:25 10° NE 23:17:23 40° NNW 23:23:22 10° W
